Tracking 18628 objects as of 25-April-2017
HD Live streaming from Space Station
objects crossing your sky now

COSMOS 2251 DEB

Track COSMOS 2251 DEB now!
10-day predictions


NORAD ID: 35448
Int'l Code: 1993-036AKS
Perigee: 755.0 km
Apogee: 776.3 km
Inclination: 73.9 °
Period: 100.0 minutes
Semi major axis: 7136 km
RCS: 0.0138 m2 (small)
Launch date: June 16, 1993
Source: Commonwealth of Independent States (former USSR) (CIS)
Launch site: PLESETSK MISSILE AND SPACE COMPLEX (PKMTR)

Note: This is SATELLITE DEBRIS
Your satellite tracking list
Your tracking list is empty





NASA's NSSDC Master Catalog

Two Line Element Set (TLE):
1 35448U 93036AKS 17114.75160783 +.00000869 +00000-0 +28303-3 0  9998
2 35448 073.9094 236.8309 0014880 349.0620 011.0208 14.40224394418237
Source of the keplerian elements: AFSPC